Location: Gradaro
(45.0833°N, 10.8833°E)
Time: 10:29:21
(UTC+00:00)

FENGYUN 1C DEB - Pass Details

Date: 28 June 2021
Orbit: 803 x 830 km, 98.8° (Epoch: 28 July)

Event Time Altitude Azimuth Distance (km) Brightness Sun altitude
Exits shadow 21:52:42 29° 190° (S) 1,436 ? -18.9°
Maximum altitude 21:55:17 59° 259° (WSW) 937 ? -19.0°
Drops below altitude 10° 22:00:34 10° 339° (NNW) 2,420 ? -19.3°
Sets 22:02:58 0° 343° (NNW) 3,361 ? -19.5°
